Location: México DF
(19.4326°N, 99.1332°W)
Time: 20:54:38
(UTC+00:00)

ISS - Pass Details

Date: 14 February 2024
Orbit: 415 x 417 km, 51.6° (Epoch: 21 February)

Event Time Altitude Azimuth Distance (km) Brightness Sun altitude
Exits shadow 11:58:59 23° 222° (SW) 918 -2.4 -16.3°
Maximum altitude 12:00:54 82° 309° (NW) 421 -3.9 -15.9°
Drops below altitude 10° 12:04:14 10° 37° (NE) 1,487 -0.6 -15.1°
Sets 12:06:20 0° 38° (NE) 2,351 0.5 -14.6°
